Milton, FL

5:28 AM CST on February 18, 2018 (GMT -0600)
Whiting Field Naval Air Station (South)

Weather History for KNDZ - May, 2013

Change the Weather History Date:

Thursday, May 9, 2013

  Actual Average (KNSE) Record (KNSE)
Temperature  
Mean Temperature 67 °F -  
Max Temperature 82 °F 81 °F 91 °F (2011)
Min Temperature 53 °F 61 °F 53 °F (2005)
Cooling Degree Days 2    
Growing Degree Days 17 (Base 50)    
Moisture  
Dew Point 60 °F    
Average Humidity 82    
Maximum Humidity 100    
Minimum Humidity 47    
Precipitation  
Precipitation 0.00 in - - ()
Sea Level Pressure  
Sea Level Pressure 30.09 in    
Wind  
Wind Speed 2 mph (South)    
Max Wind Speed 13 mph    
Max Gust Speed 17 mph    
Visibility 6 miles    
Events Fog    
Averages and records for this station are not official NWS values.
T = Trace of Precipitation, MM = Missing Value Source: NWS Daily Summary

Daily Weather History Graph

Daily Weather History Graph

Search for Another Location

Airport or City:

Trip Planner

Search our weather history database for the weather conditions in past years. The results will help you decide how hot, cold, wet, or windy it might be!

Date:

Astronomy

May. 09, 2013 Rise Set
Actual Time 5:57 AM CDT 7:32 PM CDT
Civil Twilight 5:31 AM CDT 7:58 PM CDT
Nautical Twilight 5:00 AM CDT 8:29 PM CDT
Astronomical Twilight 4:27 AM CDT 9:02 PM CDT
Moon 5:39 AM CDT (5/9) 7:27 PM CDT (5/9)
Length of Visible Light 14h 26m
Length of Day
13h 34m
Waning Crescent, 0% of the Moon is Illuminated
May 9
Waning Crescent
May 9
New
May 17
First Quarter
May 24
Full
May 31
Last Quarter

Hourly Weather History & Observations

Time (CDT) Temp. Heat Index Dew Point Humidity Pressure Visibility Wind Dir Wind Speed Gust Speed Precip Events Conditions
12:56 AM 64.9 °F - 62.1 °F 90% 30.06 in 10.0 mi Calm Calm - N/A   Clear
1:16 AM 62.6 °F - 60.8 °F 94% 30.09 in 2.5 mi South 3.5 mph - N/A   Clear
1:31 AM 62.6 °F - 60.8 °F 94% 30.09 in 1.0 mi South 3.5 mph - N/A   Clear
1:40 AM 62.6 °F - 60.8 °F 94% 30.09 in 3.0 mi Calm Calm - N/A   Clear
1:48 AM 62.6 °F - 60.8 °F 94% 30.08 in 2.0 mi Calm Calm - N/A   Clear
1:56 AM 64.0 °F - 61.0 °F 90% 30.04 in 2.5 mi Calm Calm - N/A   Clear
2:04 AM 62.6 °F - 60.8 °F 94% 30.08 in 1.5 mi Calm Calm - N/A   Clear
2:08 AM 62.6 °F - 60.8 °F 94% 30.08 in 3.0 mi Calm Calm - N/A   Clear
2:15 AM 62.6 °F - 60.8 °F 94% 30.08 in 1.8 mi South 3.5 mph - N/A   Clear
2:29 AM 62.6 °F - 60.8 °F 94% 30.07 in 3.0 mi Calm Calm - N/A   Clear
2:44 AM 60.8 °F - 59.0 °F 94% 30.07 in 1.8 mi Calm Calm - N/A   Clear
2:56 AM 62.1 °F - 60.1 °F 93% 30.03 in 2.5 mi Calm Calm - N/A   Clear
3:04 AM 62.6 °F - 60.8 °F 94% 30.07 in 5.0 mi Calm Calm - N/A   Clear
3:11 AM 62.6 °F - 60.8 °F 94% 30.07 in 1.5 mi Calm Calm - N/A   Clear
3:39 AM 60.8 °F - 57.2 °F 88% 30.07 in 3.0 mi Calm Calm - N/A   Clear
3:54 AM 60.8 °F - 59.0 °F 94% 30.08 in 1.8 mi Calm Calm - N/A   Clear
3:56 AM 61.0 °F - 59.0 °F 93% 30.04 in 1.0 mi Calm Calm - N/A   Clear
4:03 AM 59.0 °F - 57.2 °F 94% 30.08 in 0.5 mi Calm Calm - N/A Fog Fog
4:25 AM 57.2 °F - 55.4 °F 94% 30.08 in 0.2 mi Calm Calm - N/A Fog Fog
4:35 AM 60.8 °F - 57.2 °F 88% 30.08 in 1.5 mi Calm Calm - N/A   Partly Cloudy
4:37 AM 60.8 °F - 57.2 °F 88% 30.08 in 3.0 mi Calm Calm - N/A   Partly Cloudy
4:56 AM 60.1 °F - 57.9 °F 93% 30.04 in 10.0 mi Calm Calm - N/A   Clear
5:28 AM 55.4 °F - 53.6 °F 94% 30.09 in 2.0 mi Calm Calm - N/A   Clear
5:33 AM 57.2 °F - 55.4 °F 94% 30.09 in 6.0 mi Calm Calm - N/A   Partly Cloudy
5:56 AM 55.0 °F - 53.1 °F 93% 30.06 in 1.0 mi Calm Calm - N/A   Mist
6:03 AM 55.4 °F - 53.6 °F 94% 30.10 in 0.8 mi Calm Calm - N/A   Mist
6:07 AM 55.4 °F - 53.6 °F 94% 30.10 in 2.0 mi Calm Calm - N/A   Mostly Cloudy
6:20 AM 53.6 °F - 53.6 °F 100% 30.11 in 0.8 mi Calm Calm - N/A   Mist
6:44 AM 60.8 °F - 59.0 °F 94% 30.11 in 2.5 mi Calm Calm - N/A   Mostly Cloudy
6:49 AM 60.8 °F - 59.0 °F 94% 30.12 in 10.0 mi Calm Calm - N/A   Scattered Clouds
6:56 AM 57.9 °F - 57.0 °F 97% 30.08 in 8.0 mi Calm Calm - N/A   Partly Cloudy
7:56 AM 66.9 °F - 63.0 °F 87% 30.10 in 10.0 mi Calm Calm - N/A   Clear
8:56 AM 72.0 °F - 64.9 °F 78% 30.11 in 10.0 mi Calm Calm - N/A   Scattered Clouds
8:58 AM 71.6 °F - 64.4 °F 78% 30.15 in 10.0 mi Calm Calm - N/A   Mostly Cloudy
9:14 AM 73.4 °F - 64.4 °F 73% 30.15 in 10.0 mi Variable 4.6 mph - N/A   Mostly Cloudy
9:24 AM 73.4 °F - 64.4 °F 73% 30.15 in 10.0 mi SSW 3.5 mph - N/A   Scattered Clouds
9:52 AM 73.4 °F - 62.6 °F 69% 30.15 in 10.0 mi Calm Calm - N/A   Mostly Cloudy
9:56 AM 73.9 °F - 63.0 °F 68% 30.12 in 10.0 mi Calm Calm - N/A   Scattered Clouds
10:17 AM 75.2 °F - 62.6 °F 65% 30.16 in 10.0 mi NW 4.6 mph - N/A   Mostly Cloudy
10:42 AM 75.2 °F - 62.6 °F 65% 30.16 in 10.0 mi Calm Calm - N/A   Mostly Cloudy
10:56 AM 77.0 °F - 62.1 °F 60% 30.12 in 10.0 mi Variable 5.8 mph - N/A   Scattered Clouds
11:56 AM 79.0 °F - 62.1 °F 56% 30.12 in 10.0 mi SSE 8.1 mph - N/A   Partly Cloudy
12:56 PM 80.1 °F 81.1 °F 61.0 °F 52% 30.10 in 10.0 mi South 10.4 mph 17.3 mph N/A   Mostly Cloudy
1:56 PM 81.0 °F 81.3 °F 59.0 °F 47% 30.09 in 10.0 mi South 6.9 mph - N/A   Partly Cloudy
2:56 PM 81.0 °F 81.3 °F 59.0 °F 47% 30.07 in 10.0 mi South 8.1 mph - N/A   Clear
3:56 PM 81.0 °F 81.3 °F 59.0 °F 47% 30.06 in 10.0 mi South 12.7 mph - N/A   Clear
4:56 PM 79.0 °F - 59.0 °F 50% 30.05 in 10.0 mi South 11.5 mph - N/A   Clear
5:56 PM 77.0 °F - 62.1 °F 60% 30.06 in 10.0 mi South 11.5 mph - N/A   Clear
6:45 PM 73.4 °F - 60.8 °F 65% 30.09 in 10.0 mi SSW 5.8 mph - N/A   Partly Cloudy
6:56 PM 73.0 °F - 61.0 °F 66% 30.05 in 10.0 mi SSW 4.6 mph - N/A   Clear
7:56 PM 70.0 °F - 63.0 °F 78% 30.07 in 10.0 mi SSW 4.6 mph - N/A   Clear
8:56 PM 68.0 °F - 63.0 °F 84% 30.08 in 10.0 mi South 3.5 mph - N/A   Clear
9:56 PM 66.0 °F - 62.1 °F 87% 30.07 in 10.0 mi South 4.6 mph - N/A   Clear
10:56 PM 66.0 °F - 62.1 °F 87% 30.07 in 10.0 mi SSE 4.6 mph - N/A   Clear
11:56 PM 64.9 °F - 62.1 °F 90% 30.07 in 10.0 mi Calm Calm - N/A   Clear